Weather History for Alexandria, Egypt

Change the Weather History Date:

Tuesday, April 30, 2013

  Actual Average Record
Temperature  
Mean Temperature 75 °F -  
Max Temperature 88 °F 77 °F 89 °F (2001)
Min Temperature 62 °F 62 °F 53 °F (1997)
Cooling Degree Days 10    
Growing Degree Days 25 (Base 50)    
Moisture  
Dew Point 57 °F    
Average Humidity 54    
Maximum Humidity 82    
Minimum Humidity 31    
Precipitation  
Precipitation 0.00 in 0.00 in - ()
Sea Level Pressure  
Sea Level Pressure 29.94 in    
Wind  
Wind Speed 7 mph ()    
Max Wind Speed 15 mph    
Max Gust Speed -    
Visibility 6.0 miles    
Events      
Averages and records for this station are not official NWS values.
T = Trace of Precipitation, MM = Missing Value Source: Averaged Metar Reports

Daily Weather History Graph

Daily Weather History Graph

Search for Another Location

Airport:

Trip Planner

Search our weather history database for the weather conditions in past years. The results will help you decide how hot, cold, wet, or windy it might be!

Date:

Astronomy

Apr. 30, 2013 Rise Set
Actual Time 5:16 AM EET 6:38 PM EET
Civil Twilight 4:50 AM EET 7:04 PM EET
Nautical Twilight 4:20 AM EET 7:35 PM EET
Astronomical Twilight 3:48 AM EET 8:07 PM EET
Moon 11:32 PM EET (4/30) 9:27 AM EET (4/30)
Length of Visible Light 14h 13m
Length of Day
13h 22m
Waning Gibbous, 73% of the Moon is Illuminated
Apr 30
Waning Gibbous
May 2
Last Quarter
May 10
New
May 18
First Quarter
May 25
Full

Hourly Weather History & Observations

Time (EET) Temp. Heat Index Dew Point Humidity Pressure Visibility Wind Dir Wind Speed Gust Speed Precip Events Conditions
12:00 AM 69.8 °F - 57.2 °F 64% 29.92 in - NNE 4.6 mph - N/A   Clear
1:00 AM 69.8 °F - 55.4 °F 60% 29.92 in - NNE 5.8 mph - N/A   Clear
2:00 AM 69 °F - 53 °F 47% 29.92 in 6 mi North 5.8 mph - -  
2:00 AM 69.8 °F - 53.6 °F 56% 29.92 in - North 5.8 mph - N/A   Clear
3:00 AM 71.6 °F - 53.6 °F 53% 29.92 in - North 6.9 mph - N/A   Clear
4:00 AM 68.0 °F - 53.6 °F 60% 29.89 in - NNE 4.6 mph - N/A   Clear
5:00 AM 66.2 °F - 57.2 °F 73% 29.92 in - NNE 5.8 mph - N/A   Clear
6:00 AM 62.6 °F - 57.2 °F 82% 29.92 in - ENE 3.5 mph - N/A   Clear
7:00 AM 68.0 °F - 57.2 °F 68% 29.95 in - NE 5.8 mph - N/A   Clear
8:00 AM 76 °F - 57 °F 41% 29.97 in 6 mi NNW 6.9 mph - -  
8:00 AM 75.2 °F - 57.2 °F 53% 29.95 in - NNW 6.9 mph - N/A   Clear
9:00 AM 77.0 °F - 53.6 °F 44% 29.98 in - NNE 5.8 mph - N/A   Clear
9:06 AM 77.0 °F - 53.6 °F 44% 29.98 in - NNE 5.8 mph - N/A   Clear
10:00 AM 80.6 °F 80.5 °F 55.4 °F 42% 29.98 in - NE 6.9 mph - N/A   Clear
11:00 AM 84.2 °F 83.0 °F 55.4 °F 37% 29.98 in - NNE 6.9 mph - N/A   Clear
12:00 PM 86.0 °F - 51.8 °F 31% 29.95 in - NE 8.1 mph - N/A   Clear
1:00 PM 86.0 °F 86.1 °F 60.8 °F 43% 29.95 in - NNW 9.2 mph - N/A   Clear
2:00 PM 85 °F - 60 °F 33% 29.93 in 6 mi North 10.4 mph - -  
2:00 PM 86.0 °F 86.1 °F 60.8 °F 43% 29.92 in - North 10.4 mph - N/A   Clear
3:00 PM 80.6 °F 81.1 °F 59.0 °F 48% 29.92 in - NNW 13.8 mph - N/A   Clear
4:00 PM 78.8 °F - 59.0 °F 51% 29.92 in - North 15.0 mph - N/A   Clear
5:00 PM 77.0 °F - 60.8 °F 57% 29.92 in - North 15.0 mph - N/A   Clear
6:00 PM 73.4 °F - 62.6 °F 69% 29.92 in - North 13.8 mph - N/A   Clear
7:00 PM 73.4 °F - 59.0 °F 61% 29.92 in - North 13.8 mph - N/A   Clear
8:00 PM 72 °F - 59 °F 55% 29.95 in 6 mi North 13.8 mph - -  
8:00 PM 71.6 °F - 59.0 °F 64% 29.95 in - North 13.8 mph - N/A   Clear
9:00 PM 73.4 °F - 55.4 °F 53% 29.95 in - North 11.5 mph - N/A   Clear
10:00 PM 71.6 °F - 57.2 °F 60% 29.95 in - North 9.2 mph - N/A   Clear
11:00 PM 69.8 °F - 59.0 °F 68% 29.95 in - NNW 6.9 mph - N/A   Clear